Location: Newark
(0.5300°S, 127.4800°E)
Time: 05:15:17
(UTC+00:00)

A-11 Canister half - All Passes

Search period start: 18 September 2019 00:00
Search period end: 28 September 2019 00:00
Orbit: 1527 x 1682 km, 47.3° (Epoch: 16 September)

Date Brightness Start Highest point End Pass type
(mag) Time Alt. Az. Time Alt. Az. Time Alt. Az.
18 Sep - 03:39:43 10° NNW 03:48:29 33° NE 03:57:15 10° ESE daylight
18 Sep - 05:43:39 10° NW 05:53:29 55° SW 06:03:17 10° SSE daylight
18 Sep - 14:31:15 10° SSE 14:34:33 12° SE 14:37:49 10° ESE night (unlit)
18 Sep - 16:30:39 10° SSW 16:39:57 72° SE 16:49:13 10° NE visible
18 Sep - 18:38:05 10° W 18:44:52 22° NW 18:51:42 10° N visible
19 Sep - 03:18:17 10° N 03:26:48 31° NE 03:35:21 10° ESE daylight
19 Sep - 05:21:55 10° NW 05:31:50 59° SW 05:41:44 10° SSE daylight
19 Sep - 14:10:41 10° SSE 14:12:50 11° SE 14:15:00 10° ESE night (unlit)
19 Sep - 16:09:04 10° SSW 16:18:21 67° SE 16:27:34 10° NE night (unlit)
19 Sep - 18:16:08 10° W 18:23:13 24° NW 18:30:22 10° N visible
20 Sep - 02:56:51 10° N 03:05:08 29° NE 03:13:27 10° ESE daylight
20 Sep - 05:00:12 10° NW 05:10:10 64° SW 05:20:10 10° SSE daylight
20 Sep - 07:13:27 10° WSW 07:15:57 11° SW 07:18:27 10° SSW daylight
20 Sep - 15:47:31 10° SSW 15:56:44 63° SE 16:05:53 10° NE night (unlit)
20 Sep - 17:54:13 10° WSW 18:01:34 26° NW 18:08:59 10° N visible
21 Sep - 02:35:26 10° N 02:43:27 27° NE 02:51:30 10° ESE daylight
21 Sep - 04:38:30 10° NW 04:48:31 68° SW 04:58:34 10° SSE daylight
21 Sep - 06:50:33 10° WSW 06:54:12 12° SW 06:57:51 10° SSW daylight
21 Sep - 15:25:58 10° SSW 15:35:08 58° SE 15:44:12 10° NE night (unlit)
21 Sep - 17:32:20 10° WSW 17:39:56 28° NW 17:47:35 10° N visible
22 Sep - 02:14:03 10° N 02:21:46 25° NE 02:29:31 10° E daylight
22 Sep - 04:16:47 10° NW 04:26:52 72° SW 04:36:59 10° SSE daylight
22 Sep - 06:27:59 10° WSW 06:32:28 14° SW 06:36:58 10° SSW daylight
22 Sep - 15:04:25 10° SSW 15:13:31 54° SE 15:22:30 10° NE night (unlit)
22 Sep - 17:10:27 10° WSW 17:18:17 31° NW 17:26:10 10° N visible
23 Sep - 01:52:42 10° N 02:00:05 23° NE 02:07:30 10° E daylight
23 Sep - 03:55:07 10° NW 04:05:12 77° SW 04:15:22 10° SE daylight
23 Sep - 06:05:34 10° WSW 06:10:44 15° SW 06:15:55 10° SSW daylight
23 Sep - 14:42:53 10° SSW 14:51:54 50° SE 15:00:47 10° ENE night (unlit)
23 Sep - 16:48:37 10° WSW 16:56:40 33° NW 17:04:45 10° NNE night (unlit)
24 Sep - 01:31:23 10° N 01:38:24 21° NE 01:45:27 10° E daylight
24 Sep - 03:33:27 10° NW 03:43:33 82° SW 03:53:44 10° SE daylight
24 Sep - 05:43:17 10° W 05:49:01 16° SW 05:54:46 10° S daylight
24 Sep - 14:21:22 10° SSW 14:30:17 47° SE 14:39:03 10° ENE night (unlit)
24 Sep - 16:26:47 10° WSW 16:35:03 36° NW 16:43:18 10° NNE night (unlit)
25 Sep - 01:10:05 10° N 01:16:42 19° NE 01:23:21 10° E daylight
25 Sep - 03:11:48 10° NW 03:21:54 87° SW 03:32:07 10° SE daylight
25 Sep - 05:21:05 10° W 05:27:18 18° SW 05:33:33 10° S daylight
25 Sep - 13:59:51 10° SSW 14:08:40 44° SE 14:17:19 10° ENE night (unlit)
25 Sep - 16:05:00 10° WSW 16:13:25 38° NW 16:21:51 10° NNE night (unlit)
26 Sep - 00:48:51 10° N 00:55:01 18° NE 01:01:11 10° E daylight
26 Sep - 02:50:10 10° NW 03:00:15 88° NE 03:10:28 10° SE daylight
26 Sep - 04:58:56 10° W 05:05:35 19° SW 05:12:17 10° S daylight
26 Sep - 13:38:21 10° SSW 13:47:02 41° SE 13:55:33 10° ENE visible
26 Sep - 15:43:12 10° WSW 15:51:48 41° NW 16:00:23 10° NNE night (unlit)
27 Sep - 00:27:40 10° NNE 00:33:18 16° NE 00:38:58 10° E daylight
27 Sep - 02:28:33 10° NW 02:38:36 83° NE 02:48:47 10° SE daylight
27 Sep - 04:36:51 10° W 04:43:53 21° SW 04:50:58 10° S daylight
27 Sep - 13:16:51 10° SSW 13:25:24 38° SE 13:33:47 10° ENE visible
27 Sep - 15:21:26 10° WSW 15:30:11 45° NW 15:38:53 10° NNE night (unlit)
